Other Surface Observations
Issued by NWS

Home | Current Version | Previous Version | Text Only | Print | Product List | Glossary On
Versions: 1 2 3 4 5 6 7 8 9 10 11 12 13 14 15 16 17 18 19 20 21 22 23 24 25 26 27 28 29 30 31 32 33 34 35 36 37 38 39 40 41 42 43 44 45 46 47 48 49 50
000
SXUS52 KTAE 281019
OSOTAE
OSOTAE
North Florida/South Alabama/Southwest Georgia Weather Roundup
National Weather Service Tallahassee Florida
600 AM EDT THU MAY 28 2015

Note: "fair" indicates few or no clouds below 12,000 feet with no
significant weather and/or obstructions to visibility.

!FLZ017-115-028-034-025-281100
...North Florida...

CITY           SKY/WX    TMP DP  RH WIND       PRES   REMARKS
TALLAHASSEE    PTCLDY    71  67  87 E6        30.11S
APALACHICOLA   PTCLDY    73  69  87 NE3       30.10R
PERRY          CLEAR     68  67  96 NE3       30.13S
CROSS CITY       N/A     68  65  90 CALM      30.12R
JACKSONVILLE   MOCLDY    64  62  93 CALM      30.14S
$$

!FLZ112-006-005-002-011-281100
...Florida Panhandle...

CITY           SKY/WX    TMP DP  RH WIND       PRES   REMARKS
MARIANNA       CLEAR     69  69 100 E3        30.11R
BONIFAY        FAIR      69  67  93 CALM      30.12R
PANAMA CITY NW FAIR      70  68  93 NE3       30.10R
TYNDALL AFB    PTCLDY    72  70  94 NE6       30.10
TYND DRONE APT FAIR      72  70  95 NE6       30.10R
DE FUNIAK SPR  FAIR      67  67  99 MISG      30.12R
EGLIN AFB      MOCLDY    72  69  90 E3        30.10R
DESTIN         CLEAR     74  71  91 E3        30.10R
HURLBURT       PTCLDY    69  66  89 N1        30.09R
CRESTVIEW      CLEAR     68  67  96 CALM      30.12R
PENSACOLA      CLOUDY    74  73  97 E5        30.10R
$$

!ALZ063-066-281100
...South Alabama...

CITY           SKY/WX    TMP DP  RH WIND       PRES   REMARKS
DOTHAN         PTCLDY    69  67  93 E5        30.15S
OZARK CAIRNS   CLEAR     66  66  99 NE3       30.11S
FT RUCKER HELI CLEAR     68  66  93 CALM      30.11R
RUCKER HELI 3  FAIR      66  66  97 E3        30.13R
RUCKER HELI 2  FAIR      66  66 100 E3        30.11S
FLORALA APT    CLOUDY    68  67  96 NE3       30.13R FOG
ANDALUSIA      PTCLDY    70  66  87 CALM      30.13R
TROY           PTCLDY    68  66  93 NE3       30.13S
EUFALA         FAIR      69  67  93 CALM      30.13S FOG
MOBILE         MOCLDY    71  70  96 N3        30.11R
$$

!GAZ120>161-281100
...Southwest and South Central Georgia...

CITY           SKY/WX    TMP DP  RH WIND       PRES   REMARKS
THOMASVILLE    FAIR      68  68 100 SE3       30.14S
BAINBRIDGE     PTCLDY    72  70  94 E5        30.12S
MOODY AFB      CLEAR     66  64  92 E3        30.14R
VALDOSTA       CLEAR     67  66  97 E3        30.14S
MOULTRIE       CLEAR     68  64  88 E3        30.15S
BLAKELY        CLEAR     70  70 100 CALM      30.13S
ALBANY         CLEAR     69  66  90 NE5       30.16R
TIFTON           N/A     67  66  97 E3        30.15R
FITZGERALD     FAIR      69  66  91 CALM      30.18R
CORDELE        FAIR      70  69  97 E3        30.17S
AMERICUS       FAIR      68  68 100 CALM      30.18R
HOMERVILLE     FAIR      64  64 100 CALM      30.16S
$$

!GMZ750-755-770-775-281100
...Coastal and Buoy Obs...

STATION/POSITION TIME  TEMP    WIND        PRES    VSBY  WAVE
                       AIR SEA DIR/SP/G                  HT/PER
                 (UTC) (F)     (DEG/KT/KT) (MB)    (MI)  (FT/S)
KEATON BEACH     1000   69      80/  8/  9 1019.9R
CEDAR KEY        1000   75     110/ 11/ 12 1020.2R
C TOWER          1000   79     110/ 11/ 13 1018.7R
APALACHICOLA BUO 0950   81 81  140/ 14/ 17 1018.1S         2/ 6
PANAMA CITY BUOY 0950   79 81   90/ 12/ 14 1018.8R         3/ 6
MOBILE BUOY      0950   78 79  150/  6/  8 1018.6R         3/ 6
ORANGE BCH AL BU 0950   79 80  150/  6/  8 1018.1R         3/ 6
$$



USA.gov is the U.S. government's official web portal to all federal, state and local government web resources and services.